Regional Weather Roundup
Issued by NWS Jackson, KY

Home | Current Version | Previous Version | Text Only | Print | Product List | Glossary On
Versions: 1 2 3 4 5 6 7 8 9 10 11 12 13 14 15 16 17 18 19 20 21 22 23 24 25 26 27
000
ASUS43 KJKL 271510
RWRJKL

EAST KENTUCKY HOURLY WEATHER ROUNDUP
NATIONAL WEATHER SERVICE JACKSON KY
1100 AM EDT THU APR 27 2017

NOTE: "FAIR" INDICATES FEW OR NO CLOUDS BELOW 12,000 FEET WITH
NO SIGNIFICANT WEATHER AND/OR OBSTRUCTIONS TO VISIBILITY.

* THESE REPORTS ARE NOT UNDER NWS QUALITY CONTROL AND MAY NOT
  REPORT WEATHER SUCH AS PRECIPITATION AND FOG.

KYZ079-080-083-085-087-088-110-112-115-119-120-271600
...EASTERN KENTUCKY...

CITY           SKY/WX    TMP DP  RH WIND       PRES   REMARKS
JACKSON        CLOUDY    65  58  78 VRB3      29.72R
LONDON         LGT RAIN  64  57  78 SW12G22   29.73R
SOMERSET*      PTSUNNY   68  59  73 SW10G21   29.72R
MONTICELLO*    PTSUNNY   68  60  75 W24G31    29.73R
WILLIAMSBURG*  CLOUDY    63  63 100 S9        29.73S
MIDDLESBORO*   RAIN      61  60  95 S6        29.77S
HARLAN APT*    CLOUDY    61  55  82 CALM      29.77R
PIKE CO APT*   CLOUDY    65  56  72 S3        29.71F
BIG SANDY APT* LGT RAIN  66  57  72 S9        29.70F
MOREHEAD APT*  CLOUDY    70  55  60 S14G25    29.69R
$$

KYZ035-036-041-042-044-050-067-078-099-271600
...CENTRAL KENTUCKY...

CITY           SKY/WX    TMP DP  RH WIND       PRES   REMARKS
MT STERLING*   CLOUDY    68  59  73 SW14G21   29.68S
FLEMING/MASON* CLOUDY    71  58  62 S22G33    29.66R
DANVILLE*      CLOUDY    68  57  68 W18       29.70R
LEXINGTON      LGT RAIN  65  56  72 SW16G26   29.67R
FRANKFORT      CLOUDY    67  57  70 SW15G24   29.65R
LOUISVILLE     PTSUNNY   66  58  75 W22G28    29.65R
LEBANON*       CLOUDY    66  61  82 S16       29.68R
GLASGOW*       CLOUDY    68  60  75 SW13G18   29.70R
BOWLING GREEN  CLOUDY    64  57  78 W14G21    29.72R
$$

KYZ091>093-OHZ055-061-077-WVZ005-015-034-035-042-271600
...SOUTHERN OHIO/WEST VIRGINIA...

CITY           SKY/WX    TMP DP  RH WIND       PRES   REMARKS
COVINGTON      LGT RAIN  62  60  93 SW10      29.62R
COLUMBUS       CLOUDY    74  57  55 S15G23    29.60F
DAYTON         CLOUDY    61  58  90 SW14      29.61S
WILMINGTON     PTSUNNY   71  58  63 SW31G40   29.58S
HUNTINGTON     CLOUDY    70  56  61 S7        29.66R
CHARLESTON     CLOUDY    71  56  58 SE5       29.68F
PINEVILLE*     CLOUDY    69  53  57 MISG      29.82F
BECKLEY        CLOUDY    68  51  54 S15       29.82F
BLUEFIELD      CLOUDY    64  46  52 SE8       29.80F
LOGAN CO APT*    N/A     68  54  60 S9G15     29.73F
$$

VAZ002-007-008-TNZ017-027-036-066-071-271600
...SOUTHWEST VIRGINIA/EAST TENNESSEE...

CITY           SKY/WX    TMP DP  RH WIND       PRES   REMARKS
WISE*          LGT RAIN  57  57 100 SE8       29.81R
JONESVILLE*    LGT RAIN  59  59 100 NE3       29.79R
ABINGDON*      CLOUDY    72  54  53 S3        29.81F
BRISTOL        CLOUDY    71  57  61 SE6       29.77F
MORRISTOWN*    FOG       61  59  94 CALM      29.75R VSB 1/4
SEVIERVILLE*   PTSUNNY   64  59  82 N7        29.73R
KNOXVILLE      LGT RAIN  62  60  93 N6        29.74R FOG
LAFOLLETTE*    CLOUDY    61  61 100 E5        29.77F
OAK RIDGE      LGT RAIN  63  60  90 CALM      29.77R FOG
CROSSVILLE     CLOUDY    63  60  90 SW5       29.77R
NASHVILLE      PTSUNNY   65  56  72 SW9G18    29.75R
$$

...KEY TO REMARKS...
VSB - VISIBILITY IN MILES
WCI - WIND CHILL INDEX
HX  - HEAT INDEX

$$




USA.gov is the U.S. government's official web portal to all federal, state and local government web resources and services.